Other Public Products
Issued by NWS Charleston, SC

Current Version | Previous Version | Text Only | Print | Product List | Glossary Off
Versions: 1 2 3 4 5 6 7 8 9 10 11 12 13 14 15 16 17 18 19 20 21 22 23 24 25 26 27 28 29 30 31 32 33 34 35 36 37 38 39 40 41 42 43 44 45 46 47 48 49 50

217
FPUS82 KCHS 230911
OPUCHS

TEST...KCHS/KSAV Gateway Observations...TEST
National Weather Service Charleston SC
400 AM EST THU FEB 23 2017

NOTE: "fair" indicates few or no clouds below 12,000 feet with no
significant weather and/or obstructions to visibility.

SCZ050-WAZ558-NCZ071-TXZ119-213-PAZ071-DCZ001-FLZ074-172-MI076-
NYZ176-178-MAZ016-IL014-TNZ027-NJZ106-GAZ044-MD014-231000-
...Gateway Observations for Charleston International...

CITY           SKY/WX    TMP DP  RH WIND       PRES   REMARKS
Chas Airport   CLOUDY    60  57  89 NE8       29.82F
Seattle        LGT RAIN  36  34  92 CALM      30.22R
Charlotte      CLOUDY    55  53  93 CALM      29.91S
Dallas DFW     CLEAR     60  49  66 S8        29.63F
Dallas Love    CLEAR     60  46  59 SE10      29.64F
Philladelphia  FOG       48  48 100 S5        29.90S VSB 1/4
Wash National  MOCLDY    54  53  97 S3        29.88S
Baltimore      MOCLDY    48  46  93 CALM      29.87S
Miami          MOCLDY    64  60  87 SW3       29.63F
Detroit        CLOUDY    58  55  90 SW18      29.65F FOG
Newark         PTCLDY    46  41  82 CALM      29.88S
Laguardia      PTCLDY    43  38  82 NE6       29.88S
J F K          PTCLDY    42  40  92 SE3       29.89S
Boston Logan   MOCLDY    41  37  86 CALM      29.87S
Ft. Lauderdale MOCLDY    63  62  97 W5        29.61F
Chicago O`Hare CLEAR     52  47  83 W8        29.67R
Chicago Midway CLEAR     54  48  80 W9        29.67S
Houston Bush   CLEAR     56  51  84 CALM      29.75F
Houston Hobby  CLEAR     57  54  89 CALM      29.74F
Nashville      CLEAR     53  52  96 S5        29.84S FOG
Atlanta        CLEAR     56  55  97 NE6       29.86S

$$

GAZ044-118-TXZ119-213-NCZ071-DCZ001-MDZ014-506-PAZ021-071-NJZ106-
NYZ176-178-MAZ106-OHZ011-021-055-MIZ076-KYZ091-ILZ014-INZ047-
MNZ060-ONZ431-231000-
...Gateway Observations for Savannah International...

CITY           SKY/WX    TMP DP  RH WIND       PRES   REMARKS
Savannah Arpt  PTCLDY    61  58  90 N10       29.79F
Atlanta        CLEAR     56  55  97 NE6       29.86S
Charlotte      CLOUDY    55  53  93 CALM      29.91S
Dallas DFW     CLEAR     60  49  66 S8        29.63F
Houston Bush   CLEAR     56  51  84 CALM      29.75F
Wash National  MOCLDY    54  53  97 S3        29.88S
Wash Dulles    PTCLDY    52  50  93 S6        29.86F
Baltimore      MOCLDY    48  46  93 CALM      29.87S
Philadelphia   FOG       48  48 100 S5        29.90S VSB 1/4
Newark         PTCLDY    46  41  82 CALM      29.88S
Laguardia      PTCLDY    43  38  82 NE6       29.88S
J F K          PTCLDY    42  40  92 SE3       29.89S
Boston         MOCLDY    41  37  86 CALM      29.87S
Pittsburg      MOCLDY    55  52  89 S6        29.81S
Akron          CLOUDY    55  52  89 S7        29.78F FOG
Cleveland      CLOUDY    59  53  80 S15       29.76S
Cincinnati     MOCLDY    58  56  93 SW5       29.80R
Columbus       CLOUDY    54  54 100 S9        29.78F
Detroit        CLOUDY    58  55  90 SW18      29.65F FOG
Chicago O`Hare CLEAR     52  47  83 W8        29.67R
Minneapolis    CLOUDY    36  29  75 N14G28    29.85S WCI  27
Indianapolis   PTCLDY    55  53  93 S8        29.75F
Toronto Canada CLOUDY    46  46 100 SE7       29.64F

$$




USA.gov is the U.S. government's official web portal to all federal, state and local government web resources and services.